Terminal Aerodrome Forecast
Issued by NWS

Home | Current Version | Previous Version | Text Only | Print | Product List | Glossary On
Versions: 1 2 3 4 5 6 7 8 9 10 11 12 13 14 15 16 17 18 19 20 21 22 23 24 25 26 27 28 29 30 31 32
000
FTAK31 PANC 192330
TAFAEN
TAF
PAEN 192330Z 2000/2024 12005KT P6SM VCSH SCT025 BKN060
      TEMPO 2000/2003 BKN025
     FM200600 24004KT P6SM SCT015 OVC035
     FM201900 02015KT P6SM -RA OVC035=

USA.gov is the U.S. government's official web portal to all federal, state and local government web resources and services.